Retour au catalogue

STARLINK-5854

ActifCommunicationsVLEO
NORAD 55923·PAYLOAD·🇺🇸 United States

Lancé Mar 17, 2023 depuis Vandenberg Space Force Base

Loading…

Prochains Passages (prochaines 24 heures)

TLE

FraisSource: CelesTrak SupGP

Époque: Sep 15, 2026, 01:56 UTC

1 55923C 23037K   26258.08104167 -.00009144  00000+0 -76636-3 0  2587
2 55923  70.0018 186.9315 0003025 268.1080 183.1847 14.98332725    17

Suivez STARLINK-5854 en temps réel avec AllMySat

Download on the App Store